Location: Le Vaud
(46.4779°N, 6.2346°E)
Time: 23:52:04
(UTC+00:00)

Meteor 1-31 Rocket - Pass Details

Date: 18 February 2020
Orbit: 522 x 546 km, 97.6° (Epoch: 04 April)

Event Time Altitude Azimuth Distance (km) Brightness Sun altitude
Rises 03:53:56 0° 19° (NNE) 2,665 6.7 -28.2°
Reaches altitude 10° 03:56:08 10° 26° (NNE) 1,773 5.8 -27.9°
Enters shadow 03:59:15 40° 75° (ENE) 785 4.0 -27.3°
